Regional Weather Roundup
Issued by NWS Cleveland, OH

Home | Current Version | Previous Version | Graphics & Text | Print | Product List | Glossary On
Versions: 1 2 3 4 5 6 7 8 9 10 11 12 13 14 15 16 17 18 19 20 21 22 23 24 25 26 27 28 29 30 31 32 33 34 35 36 37 38 39 40 41 42 43 44 45 46 47 48 49 50
000
ASUS41 KCLE 291300
RWRCLE
OHIO REGIONAL WEATHER ROUNDUP
NATIONAL WEATHER SERVICE WILMINGTON, OH
900 AM EDT SAT AUG 29 2015

NOTE: "FAIR" INDICATES FEW OR NO CLOUDS BELOW 12,000 FEET WITH NO
SIGNIFICANT WEATHER AND/OR OBSTRUCTIONS TO VISIBILITY.

OHZ001>008-015>018-024>027-034-035-043-044-291400-
   NORTHWEST OHIO

CITY           SKY/WX    TMP DP  RH WIND       PRES   REMARKS
DEFIANCE       CLOUDY    66  59  78 CALM      30.13S
FINDLAY        CLOUDY    65  59  81 SE6       30.13S
TOLEDO EXPRESS CLOUDY    64  60  87 CALM      30.14S
TOLEDO EXEC    PTSUNNY   66  59  78 CALM      30.15S
LIMA           PTSUNNY   67  59  75 SE7       30.13F
$$

OHZ009>014-019>023-028>033-038-089-291400-
   NORTHEAST OHIO

CITY           SKY/WX    TMP DP  RH WIND       PRES   REMARKS
CLE-HOPKINS    CLOUDY    64  57  78 S3        30.19R
CLE-LAKEFRONT  CLOUDY    66  56  70 S8        30.16R
CUY CO. ARPT   CLOUDY    68  59  73 SE6       30.18R
LORAIN-ELYRIA  CLOUDY    62  58  86 S5        30.17S
ASHTABULA      PTSUNNY   62  59  90 S6        30.20R
AKRON-CANTON   CLOUDY    64  57  78 S5        30.19S
WOOSTER        NOT AVBL
MANSFIELD      CLOUDY    65  56  72 S5        30.18R
YOUNGSTOWN     PTSUNNY   63  57  81 SE6       30.19S
$$

OHZ042-051>053-060>062-070>072-077>081-291400-
  SOUTHWEST OHIO

CITY           SKY/WX    TMP DP  RH WIND       PRES   REMARKS
CINC-COVINGTON MOSUNNY   71  64  78 S9        30.15R
CINC-LUNKEN    MOSUNNY   67  64  90 CALM      30.16R
HAMILTON       PTSUNNY   73  64  73 CALM      30.15R
DAYTON         NOT AVBL
WRIGHT-PAT AFB NOT AVBL
DAYTON GENERAL PTSUNNY   69  61  75 S9        30.14S
WILMINGTON     PTSUNNY   68  60  75 S9        30.16R
$$

OHZ036-037-039>041-045>050-054>059-063>069-073>076-082>088-291400-
  CENTRAL AND SOUTHEAST OHIO

CITY           SKY/WX    TMP DP  RH WIND       PRES   REMARKS
COLUMBUS       CLOUDY    66  58  75 SE3       30.16R
OSU AIRPORT    CLOUDY    66  59  78 SE5       30.16R
BOLTON FIELD   SUNNY     64  61  88 CALM      30.17R
RICKENBACK AFB NOT AVBL
NEWARK         PTSUNNY   62  59  90 CALM      30.17S
MARION         CLOUDY    64  57  78 SE5       30.16S
LANCASTER      PTSUNNY   66  59  78 CALM      30.17R
ZANESVILLE     SUNNY     62  55  77 CALM      30.18S
NEW PHILLY     PTSUNNY   62  58  86 CALM      30.19S
$$


USA.gov is the U.S. government's official web portal to all federal, state and local government web resources and services.